Location: Grundy Observatory
(40.0525°N, 76.3328°W)
Time: 06:41:20
(UTC-05:00)

Daily predictions for brighter satellites

Satellite Brightness Start Highest point End
(mag) Time Altitude Azimuth Time Altitude Azimuth Time Altitude Azimuth
Cosmos 1867 4.0 17:26:58 10° SW 17:32:20 66° NW 17:37:48 10° NNE
Nadezhda 1 Rocket 4.0 17:26:53 10° S 17:33:04 85° E 17:39:23 10° N
ATLAS 2AS CENTAUR R/B 3.3 17:26:10 10° NNW 17:33:47 45° NE 17:40:51 10° ESE
USA 161 4.0 17:36:47 10° NNW 17:38:20 16° WNW 17:39:49 10° WSW
Lacrosse 4 Rocket 3.6 17:36:44 10° WSW 17:39:51 20° NW 17:42:58 10° N
Cosmos 1674 2.8 17:36:19 10° S 17:40:00 55° E 17:43:40 10° NNE
Cosmos 2341 Rocket 4.3 17:34:16 10° N 17:40:17 47° ENE 17:46:17 10° SSE
NOSS 2-1 (E) 3.4 17:40:16 10° SSW 17:43:51 56° ESE 17:47:47 10° NE
Cosmos 2369 Rocket 2.4 17:42:45 10° NNW 17:48:14 47° ENE 17:53:40 10° SE
Cosmos 1484 Rocket 3.7 17:44:41 10° S 17:48:27 51° W 17:52:09 10° NNW
Cosmos 1842 Rocket 3.5 17:44:17 10° N 17:48:46 79° E 17:53:10 10° S
Meteor 2-10 4.5 17:46:16 10° N 17:50:54 36° ENE 17:55:33 10° SE
IRS-1A Rocket 4.2 17:46:07 10° SSE 17:51:34 67° ENE 17:57:07 10° N
Cosmos 1315 Rocket 4.5 17:49:31 10° ESE 17:51:47 15° E 17:53:24 12° ENE
CORIOLIS 4.5 17:54:03 10° S 17:59:23 71° WSW 18:04:44 10° NNW
Cosmos 2154 Rocket 4.2 17:54:23 10° N 18:00:43 83° W 18:07:02 10° S
Tiangong 1 0.5 17:58:23 10° W 18:00:51 64° NNW 18:02:19 21° ENE
OAO 3 Rocket 4.4 17:57:07 10° SW 18:01:17 32° SSE 18:05:12 11° ESE
Cosmos 1300 3.6 17:58:22 10° NNE 18:01:39 27° ENE 18:04:56 10° SE
NOSS 3-3 (A) 3.9 17:56:30 10° SSW 18:02:29 78° ESE 18:09:03 10° NE
NOSS 3-3 (C) 3.9 17:56:37 10° SSW 18:02:35 77° ESE 18:09:09 10° NE
Okean 3 Rocket 4.1 17:58:35 10° SSE 18:02:49 40° E 18:07:03 10° NNE
USA 116 4.1 17:59:32 10° N 18:03:34 75° WNW 18:08:09 10° SSW
Cosmos 1076 Rocket 4.0 18:00:20 10° SSE 18:04:22 38° E 18:08:26 10° NNE
Cosmos 2181 Rocket 4.1 18:00:19 10° S 18:06:40 66° E 18:13:03 10° NNE
ALOS 2.3 18:03:27 10° SSE 18:08:00 57° ENE 18:12:35 10° N
Cosmos 1354 Rocket 4.0 18:04:59 10° NNW 18:10:19 89° E 18:15:38 10° SSE
SPOT 3 Rocket 3.7 18:05:40 10° SE 18:10:36 49° ENE 18:15:34 10° N
Cosmos 2084 3.0 18:07:12 10° NNW 18:11:00 79° NE 18:14:53 10° SE
Cosmos 1626 3.9 18:08:40 10° SE 18:10:06 15° ESE 18:10:06 15° ESE
Meteor 1-21 Rocket 4.3 18:05:24 10° S 18:11:14 76° E 18:17:10 10° NNE
Cosmos 1766 Rocket 4.5 18:08:20 10° SE 18:11:55 26° E 18:14:21 16° NE
Cosmos 1943 Rocket 2.3 18:09:38 10° NNW 18:15:07 51° ENE 18:20:29 10° SE
MOS 1 4.2 18:12:01 10° SSE 18:17:38 75° ENE 18:23:17 10° N
GEOS 3 Rocket 4.1 18:13:10 10° ESE 18:18:07 42° NE 18:23:10 10° NNW
MTI 3.7 18:15:11 10° NNE 18:18:25 88° E 18:21:37 10° SSW
SKYMED 2 3.6 18:15:06 10° NNE 18:19:28 85° WNW 18:23:48 10° SSW
Cosmos 1908 4.5 18:18:27 10° NNW 18:22:09 44° W 18:25:50 10° SSW
ERS-2 2.3 18:20:38 10° SSE 18:24:10 48° ENE 18:27:44 10° N
Cosmos 1400 Rocket 2.7 18:21:47 10° S 18:25:46 86° E 18:29:52 10° N
Cosmos 1328 4.2 18:23:06 10° SSE 18:26:50 38° E 18:28:46 23° NE
YAOGAN 1 3.5 18:25:00 10° S 18:29:11 50° W 18:33:24 10° NNW
Cosmos 2218 Rocket 3.9 18:27:13 10° N 18:33:22 65° E 18:39:26 10° SSE
H-2A R/B 2.9 18:30:49 10° SSE 18:34:24 44° ENE 18:38:04 10° N
BREEZE-M R/B 4.2 18:31:49 10° WSW 18:36:17 69° NNW 18:47:13 19° ENE
SL-8 Rocket 3.9 18:30:17 10° N 18:36:29 83° E 18:42:42 10° S
NOAA 12 4.1 18:31:21 10° SSE 18:36:34 87° WSW 18:41:51 10° NNW
FENGYUN 3A 3.7 18:31:35 10° S 18:36:56 80° WSW 18:42:19 10° NNW
Meteor 2-16 Rocket 4.5 18:30:50 10° N 18:36:58 85° W 18:43:05 10° S
CZ-4 R/B 4.2 18:43:28 10° SW 18:46:41 21° W 18:49:57 10° NW
Cosmos 1959 Rocket 4.4 18:41:35 10° N 18:47:56 85° E 18:54:17 10° S
SL-08 R/B 4.3 18:42:07 10° N 18:48:21 70° E 18:54:26 10° SSE
Cosmos 2098 Rocket 3.9 18:44:24 10° N 18:48:57 40° E 18:54:35 10° SSE
Cosmos 1943 4.0 18:45:25 10° SW 18:50:51 49° WNW 18:56:19 10° NNE
EO 1 Del DPAF 4.4 18:55:33 10° N 18:59:11 42° WNW 19:02:48 10° SW
Cosmos 44 3.7 18:56:27 10° S 18:59:40 38° SSE 18:59:40 38° SSE
Cosmos 1408 Rocket 3.5 19:03:19 10° S 19:07:38 83° W 19:08:57 44° N
Cosmos 44 Rocket 4.0 19:08:15 10° S 19:11:26 37° SSE 19:11:26 37° SSE
Cosmos 2366 rocket 4.3 19:09:56 10° NNW 19:16:07 64° W 19:22:13 10° S
Cosmos 968 Rocket 4.4 19:14:11 10° NNW 19:19:07 47° WSW 19:23:59 10° S
ATLAS 2AS CENTAUR R/B 4.0 19:17:29 10° NW 19:24:46 44° WSW 19:31:29 10° S
Cosmos 1315 Rocket 4.3 19:24:25 10° SW 19:28:01 34° WNW 19:29:12 28° NW
Nadezhda 3 Rocket 3.8 19:24:00 10° S 19:30:17 81° E 19:32:36 42° NNE
Cosmos 2369 Rocket 4.5 19:27:29 10° NW 19:31:53 24° W 19:36:18 10° SSW
Thor Agena Rocket 3.7 19:34:00 58° NNW 19:34:57 73° WNW 19:40:09 10° SSW
Meteor 1-27 4.4 19:34:43 10° NNW 19:40:23 73° W 19:46:07 10° S
OAO 3 Rocket 4.4 19:39:50 10° WSW 19:43:01 36° SW 19:43:01 36° SW
Cosmos 1626 4.5 19:42:51 10° SW 19:44:48 22° WSW 19:44:48 22° WSW
NOSS 3-4 (A) 3.7 19:40:20 10° NNW 19:47:27 84° NE 19:47:55 79° ESE
NOSS 3-4 (C) 3.7 19:40:26 10° NNW 19:47:33 83° NE 19:47:58 79° ESE
Cosmos 1943 Rocket 4.5 19:54:19 10° NW 19:58:24 21° W 20:02:27 10° SSW
Cosmos 1656 Rocket 4.4 19:54:40 10° NNW 19:59:26 49° W 19:59:26 49° W
